Dewpoint
74 74 75 74 75 76 74 72 70 71 73 73 73 72 72 72 72 73 73 71 70 71 70 70 70 72 72 72 73 73 73 72 69 70 71 69 69 68 68 68 66 67 65
74 75 74 74 75 74 71 70 70 72 73 73 72 71 70 70 71 71 70 69 69 69 69 69 69 67 71 73 71 72 72 72 70 68 70 68 68 68 67 66 65 66 66
74 74 73 73 73 71 69 69 70 72 73 71 70 70 70 69 70 70 69 68 68 68 68 69 69 69 71 69 70 70 70 70 70 69 67 66 65 65 63 63 63 64 65
72 72 72 72 71 68 69 68 70 73 72 70 70 69 69 68 68 68 68 68 69 68 68 68 68 68 69 69 69 71 70 70 70 69 66 64 64 64 63 61 61 64 63
71 70 71 70 68 68 69 72 73 73 70 70 69 69 68 67 65 68 68 68 68 68 67 68 68 68 67 68 67 69 69 68 66 66 64 63 63 61 60 61 61 62 63
70 71 71 71 70 70 72 73 72 72 71 71 69 68 67 64 62 64 66 66 66 66 66 67 67 67 66 64 65 65 67 69 67 64 64 63 63 63 63 61 61 60 59
69 71 71 71 70 70 72 72 72 72 72 71 70 69 68 68 61 61 63 66 65 66 66 66 64 61 65 64 63 64 64 65 64 67 66 65 64 64 64 63 62 61 61
68 70 71 72 70 71 72 72 73 72 71 71 70 70 69 68 59 58 60 67 66 66 66 65 66 65 65 63 63 65 65 67 66 64 67 68 67 66 65 64 63 63 60
64 65 71 72 71 72 72 73 74 74 74 72 72 71 71 70 58 57 60 66 65 65 65 66 66 66 61 59 64 64 65 65 61 60 60 61 61 61 63 63 60 59 60
65 67 70 72 72 72 72 71 72 72 71 70 71 71 67 71 61 56 59 64 64 63 66 66 62 64 57 57 65 66 65 64 65 64 64 61 62 63 60 65 62 59 60
66 65 65 65 67 68 68 70 70 70 69 69 69 70 70 69 69 55 54 66 65 66 63 62 62 59 54 54 57 66 66 64 64 66 63 63 63 64 63 64 65 62 61
62 62 63 65 66 67 68 68 67 67 67 67 67 66 65 68 60 58 55 55 62 66 65 66 63 55 53 52 55 57 56 60 65 62 62 62 61 61 61 63 66 65 63
61 62 63 63 63 64 65 65 63 65 63 63 62 63 64 64 65 56 55 54 55 61 64 63 58 53 52 53 53 54 54 62 60 60 62 61 60 60 64 65 64 65 65
60 60 61 61 61 62 59 60 61 61 62 63 62 61 61 62 62 64 66 65 57 60 60 62 62 61 60 60 58 57 62 62 60 61 64 64 66 60 60 61 61 61 60
59 59 59 58 60 59 61 59 59 61 58 59 57 56 56 58 60 53 53 62 65 61 60 62 61 63 64 64 63 62 62 64 66 67 68 68 64 62 60 61 60 61 59
59 57 56 55 55 57 57 59 52 51 47 45 45 48 55 50 46 44 44 44 46 50 59 62 61 63 62 63 64 66 66 64 68 67 65 64 63 63 62 62 66 64 59
58 57 54 53 53 54 55 56 57 56 48 45 44 43 43 46 43 42 41 42 44 48 61 63 63 63 63 63 63 62 61 62 62 62 60 60 60 59 57 58 60 59 60
57 54 54 53 52 51 51 52 54 55 55 56 49 49 49 45 44 42 42 47 57 53 62 64 64 64 63 63 62 62 61 60 58 58 58 58 57 57 56 57 57 58 58
53 51 52 52 52 52 51 52 51 55 57 56 56 54 53 50 45 44 43 58 61 61 61 62 63 63 63 63 63 63 61 59 57 57 57 57 57 57 56 57 56 53 54
51 54 53 51 49 50 49 48 47 51 56 57 57 57 57 56 58 59 60 60 60 60 60 59 60 58 59 58 58 57 56 56 56 56 57 56 56 56 55 54 54 54 54
48 48 52 49 48 47 48 48 48 48 55 58 60 56 46 57 58 58 57 58 57 57 58 58 59 58 58 57 57 57 56 56 56 56 56 55 56 55 56 56 56 55 55
50 49 49 49 50 50 50 49 48 48 57 57 56 56 48 57 57 57 56 56 57 57 57 57 57 57 57 56 56 56 55 56 56 56 56 55 54 54 53 52 51 50 50
50 50 52 52 51 51 51 50 51 55 58 57 56 55 54 56 55 55 54 55 55 54 55 56 56 55 56 57 57 57 55 55 54 55 54 52 52 52 52 51 50 47 43
50 52 52 52 54 52 55 56 57 53 58 58 55 54 55 55 54 54 53 53 53 53 54 52 51 51 51 50 51 51 51 53 53 53 53 51 50 47 47 45 42 42 41
51 53 55 55 55 55 55 55 57 58 58 57 57 57 56 55 54 54 54 56 55 50 45 45 46 46 44 42 41 42 39 34 46 42 45 45 44 46 43 43 44 43 43
49 51 52 53 54 55 55 55 56 57 57 58 57 57 57 54 54 54 54 53 51 47 43 42 41 42 41 39 38 35 32 32 39 35 41 42 41 41 41 42 42 39 40
Lifted_Index
-9 -9 -9 -9 -10 -9 -8 -6 -6 -6 -7 -7 -6 -6 -5 -5 -4 -4 -4 -3 -3 -3 -3 -3 -3 -3 -3 -3 -3 -3 -3 -3 -3 -3 -2 -1 -0 0 1 1 1 2 2
-10 -9 -9 -10 -10 -9 -7 -6 -6 -7 -7 -7 -6 -6 -5 -5 -4 -4 -3 -3 -3 -3 -3 -3 -3 -3 -3 -3 -3 -3 -3 -3 -3 -3 -2 -1 -1 -0 0 1 1 1 2
-10 -10 -10 -10 -9 -8 -6 -6 -6 -7 -8 -7 -6 -6 -5 -5 -4 -4 -3 -3 -2 -2 -2 -2 -2 -3 -3 -3 -3 -3 -3 -3 -3 -3 -2 -1 -1 -1 -0 0 1 1 2
-9 -9 -9 -9 -8 -7 -6 -6 -7 -8 -7 -7 -6 -6 -5 -5 -4 -4 -3 -3 -2 -2 -2 -2 -2 -2 -3 -3 -3 -4 -3 -3 -3 -2 -2 -2 -2 -2 -1 -0 0 1 1
-8 -8 -8 -8 -8 -7 -7 -8 -8 -8 -7 -7 -6 -6 -5 -5 -4 -3 -3 -3 -3 -2 -2 -2 -2 -2 -2 -2 -3 -3 -3 -3 -3 -2 -2 -2 -2 -2 -1 -1 -0 0 1
-7 -7 -7 -7 -7 -7 -8 -9 -9 -8 -7 -7 -6 -6 -5 -4 -3 -3 -3 -3 -3 -3 -2 -2 -2 -2 -2 -1 -1 -1 -2 -2 -2 -2 -1 -1 -2 -2 -2 -1 -0 -0 0
-6 -6 -7 -7 -7 -7 -8 -9 -9 -8 -8 -7 -7 -6 -6 -5 -4 -2 -2 -3 -3 -3 -3 -3 -2 -2 -1 -1 -0 -0 -1 -2 -2 -2 -2 -1 -1 -1 -1 -1 -1 -0 0
-5 -5 -6 -7 -7 -7 -8 -8 -8 -8 -8 -8 -7 -7 -6 -5 -4 -3 -2 -2 -2 -2 -3 -2 -2 -2 -1 -0 -0 -0 -1 -1 -1 -1 -1 -1 -1 -1 -1 -1 -1 -0 0
-2 -3 -5 -6 -7 -8 -7 -8 -8 -8 -8 -8 -7 -7 -7 -6 -5 -3 -2 -2 -2 -2 -2 -2 -2 -2 -1 -0 -0 -1 -1 -1 -0 -0 -0 -0 -0 -0 -1 -1 -1 -0 -0
-1 -2 -4 -6 -7 -7 -7 -7 -7 -7 -7 -7 -7 -7 -6 -6 -5 -4 -3 -2 -2 -2 -2 -2 -1 -1 -1 -0 -0 -1 -1 -1 -0 0 1 1 1 1 -0 -0 -1 -1 -0
1 1 -1 -3 -4 -5 -5 -6 -6 -6 -6 -6 -6 -6 -5 -5 -4 -3 -2 -2 -2 -2 -2 -2 -1 -1 -1 -0 -0 -1 -1 -1 -0 -0 0 1 1 1 1 0 0 -0 -0
4 3 2 0 -1 -2 -3 -4 -4 -4 -4 -4 -4 -4 -4 -3 -3 -2 -2 -1 -1 -1 -1 -2 -1 -1 -1 -0 0 -0 -1 -0 -0 -0 -0 0 1 1 1 1 1 0 0
5 4 3 2 1 -0 -1 -1 -2 -2 -2 -2 -2 -2 -2 -2 -2 -1 -1 -1 -0 -0 -0 -1 -1 -1 -1 -0 0 -0 -0 -0 -0 -1 -0 -0 0 0 1 1 1 1 1
4 3 3 2 2 1 1 0 0 0 -0 -0 0 0 0 0 0 -0 -0 -0 0 1 1 1 1 1 -0 -0 -0 -0 -0 -1 -1 -1 -1 -1 -0 0 0 1 1 1 1
2 2 2 2 2 1 1 2 2 2 2 2 2 2 2 2 2 1 1 1 1 1 2 2 3 2 1 0 0 -0 -1 -1 -1 -1 -1 -1 -0 1 1 1 1 1 1
1 1 2 2 2 2 2 2 3 3 4 4 4 4 4 3 3 2 1 1 1 1 2 2 2 2 1 1 0 -0 -1 -1 -1 -1 -1 -0 0 1 1 1 1 1 2
1 2 2 2 3 3 3 2 3 3 3 4 4 4 4 4 3 2 1 1 1 1 1 1 1 1 1 1 1 0 0 0 -0 0 0 1 1 2 2 2 2 2 2
2 3 3 3 3 3 3 3 3 2 2 3 3 4 4 4 3 2 1 1 0 1 1 1 1 1 1 1 1 1 1 1 1 1 1 2 2 2 2 2 2 3 3
3 4 4 4 4 4 4 4 3 2 2 2 2 3 3 3 3 2 1 1 0 0 1 1 1 0 0 1 1 1 1 1 2 2 2 3 3 3 3 3 4 4 4
4 4 5 4 4 4 4 4 4 3 2 1 2 2 3 3 3 2 2 1 1 1 1 1 1 1 1 1 1 2 2 2 2 3 3 4 4 4 4 4 5 5 5
4 4 4 4 4 4 3 3 3 2 1 1 1 2 3 3 2 2 2 2 1 2 2 2 2 2 2 2 2 3 3 3 4 4 4 4 4 4 5 5 5 5 5
3 3 3 3 3 2 2 2 2 1 0 0 1 2 2 2 2 2 3 2 2 3 3 3 3 3 3 3 3 4 4 4 4 4 4 5 5 5 5 5 6 6 6
2 2 2 1 1 1 1 1 1 0 -0 -0 0 1 1 2 2 3 3 3 3 3 3 3 3 4 4 4 4 4 5 5 5 5 5 5 5 6 6 6 6 7 7
1 1 0 0 0 0 0 0 -0 -0 -1 -0 -0 0 1 2 2 2 2 3 3 3 3 3 3 4 4 4 4 5 5 6 6 6 6 6 6 6 6 7 7 7 7
0 -0 -0 -0 0 -0 -0 0 -0 -0 -1 -1 -0 0 1 1 1 1 2 2 2 3 3 3 3 4 4 4 5 6 7 8 8 7 7 7 7 7 7 7 7 7 6
0 -0 -0 -0 -0 -0 -0 0 -0 -1 -1 -1 -0 -0 0 0 1 1 1 1 2 2 2 3 3 4 4 5 6 7 8 9 9 9 8 7 7 7 6 6 6 6 6